Location: Chaufour
(48.9500°N, 1.7833°E)
Time: 07:23:25
(UTC+00:00)

Daily predictions for brighter satellites

Satellite Brightness Start Highest point End
(mag) Time Altitude Azimuth Time Altitude Azimuth Time Altitude Azimuth
NOSS 2-2 (D) 4.5 17:57:22 10° NW 18:02:14 76° SW 18:09:09 10° SSE
CZ-4B DEB 4.3 17:58:27 10° SSE 18:03:55 87° WSW 18:09:26 10° NNW
SL-16 R/B 3.9 18:07:47 10° E 18:08:21 10° E 18:08:55 10° E
USA 186 3.9 18:07:34 10° E 18:09:04 13° ENE 18:10:33 10° NE
USA 215 3.5 18:02:50 10° NE 18:09:23 76° NNW 18:15:54 10° WSW
Tsikada Rocket 4.4 18:05:57 10° SSW 18:12:22 74° W 18:18:49 10° N
SL-4 R/B 2.5 18:09:05 10° WNW 18:13:27 64° N 18:18:03 10° E
Cosmos 1844 Rocket 4.4 18:09:52 10° N 18:13:31 17° NE 18:17:09 10° ENE
ARGOS Delta rocket 4.2 18:10:11 10° NNE 18:15:25 51° E 18:20:22 10° S
Timation 2 Rocket 4.2 18:11:07 10° NNW 18:17:33 56° NE 18:23:40 10° SE
SKYMED 3 4.4 18:13:36 10° NNE 18:17:44 82° ESE 18:21:51 10° SSW
BREEZE-M DEB (TANK) 4.3 18:16:44 10° SW 18:21:08 52° SE 18:37:46 10° ENE
Okean O Rocket 1.8 18:18:03 10° SE 18:22:16 52° ENE 18:26:32 10° N
Cosmos 2219 4.0 18:18:51 10° NW 18:24:28 56° WSW 18:30:04 10° S
Cosmos 1242 Rocket 2.4 18:24:17 10° S 18:27:49 66° E 18:31:22 10° NNE
Spot 1 3.9 18:24:33 10° NNE 18:28:53 77° ESE 18:32:59 10° S
BREEZE M DEB (TANK) 4.3 18:24:46 10° SSW 18:29:15 17° SSE 18:31:25 12° ESE
SL-14 R/B 3.3 18:26:41 10° N 18:30:36 59° ENE 18:34:31 10° SSE
Cosmos 2263 Rocket 2.3 18:26:19 10° NNW 18:31:59 62° ENE 18:37:37 10° SE
Cosmos 2360 4.4 18:28:53 10° SSW 18:34:36 78° WNW 18:40:22 10° NNE
Cosmos 1805 3.1 18:30:48 10° S 18:34:38 66° E 18:38:30 10° NNE
Cosmos 1674 Rocket 3.6 18:30:44 10° N 18:35:05 57° ENE 18:39:26 10° SSE
YAOGAN 1 2.5 18:31:46 10° SSE 18:36:05 84° ENE 18:40:26 10° NNW
Meteor 2-5 Rocket 4.5 18:32:00 10° N 18:36:56 31° ENE 18:41:16 12° SE
SKYMED 2 4.4 18:33:37 10° N 18:37:53 54° WNW 18:42:07 10° SSW
Cosmos 1726 2.4 18:34:51 10° SSE 18:38:19 43° E 18:41:49 10° NNE
COBE Rocket 3.9 18:33:29 10° SSE 18:38:24 87° WSW 18:43:12 10° NNW
OBJECT-B 1.4 18:38:57 22° E 18:39:28 24° ENE 18:41:38 10° NNE
H-2A R/B 4.2 18:39:28 13° ENE 18:40:02 14° ENE 18:42:02 10° NNE
Cosmos 2082 4.0 18:37:42 10° NNW 18:43:25 70° WSW 18:49:07 10° SSE
IRIDIUM 106 4.4 18:40:35 10° SSE 18:45:39 56° E 18:50:46 10° NNE
USA 267 4.4 18:40:06 10° SSE 18:46:12 40° SW 18:52:19 10° WNW
Cosmos 1766 3.5 18:44:51 10° SSE 18:48:35 46° E 18:52:23 10° NNE
Cosmos 1025 Rocket 4.3 18:47:14 10° NNE 18:50:31 21° ENE 18:51:17 20° E
Cosmos 1697 Rocket 3.4 18:47:01 10° SW 18:52:32 58° WNW 18:58:07 10° NNE
CSL-04 Debris 4.3 18:50:35 10° SE 18:55:50 53° ENE 19:01:04 10° N
Cosmos 2221 Rocket 4.0 18:53:04 10° NNW 18:57:33 66° W 19:02:02 10° S
Cosmos 1975 Rocket 4.0 18:56:08 10° N 18:59:56 27° ENE 19:00:50 25° E
ASTEX 1 4.3 18:55:24 10° N 19:00:14 52° WNW 19:05:03 10° SSW
Cosmos 1092 Rocket 4.4 18:56:16 10° SSE 19:02:03 40° E 19:07:50 10° NNE
Landsat 7 4.5 19:00:02 24° ESE 19:02:08 35° ENE 19:06:24 10° N
IGS 5A 3.8 18:59:48 22° SE 19:02:08 44° ENE 19:06:06 10° N
Cosmos 1378 Rocket 3.7 18:59:53 10° NNW 19:04:17 75° W 19:08:38 10° S
Resurs 01 Rocket 3.0 19:05:25 21° ENE 19:05:43 21° ENE 19:09:03 10° NNE
Cosmos 1733 4.4 19:05:13 10° SSW 19:08:49 44° WNW 19:12:27 10° N
Cosmos 968 Rocket 3.9 19:04:55 10° S 19:09:44 38° ESE 19:14:34 10° NE
ATLAS 2AS CENTAUR R/B 4.5 19:08:32 10° WNW 19:14:39 26° N 19:20:31 10° NE
Cosmos 1470 3.3 19:15:56 36° ENE 19:15:56 36° ENE 19:19:03 10° NNE
Cosmos 1733 Rocket 4.3 19:11:48 10° SSW 19:16:04 45° WNW 19:20:22 10° N
ISS -3.0 19:18:52 10° WNW 19:22:06 44° SSW 19:22:45 38° S
Cosmos 2084 4.1 19:18:41 10° WSW 19:22:23 47° NW 19:25:47 12° NNE
Cosmos 2322 Rocket 4.0 19:19:16 10° SSE 19:27:51 15° NE 19:29:02 10° NE
Ariane Rocket 4.2 19:25:15 24° ENE 19:25:21 24° ENE 19:29:20 10° N
CSL-04 Rocket 3.5 19:21:40 17° SSE 19:25:52 80° ENE 19:31:18 10° NNW
Okean-O 2.5 19:24:10 29° SSE 19:26:25 75° ENE 19:30:51 10° N
Resurs 1-3 3.6 19:26:17 40° SE 19:27:41 62° ENE 19:32:02 10° N
CZ-4 R/B 2.8 19:23:55 10° SSW 19:27:50 39° W 19:31:48 10° NNW
Gbstr 26 Del rocket 4.4 19:21:31 10° SW 19:29:10 71° SSE 19:34:41 23° ENE
SJ-6B 2.6 19:30:23 36° S 19:31:50 82° WSW 19:35:38 10° NNW
Cosmos 1570 Rocket 3.9 19:27:00 10° NNW 19:32:18 84° ENE 19:34:48 32° SSE
Cosmos 1980 Rocket 2.9 19:27:16 10° SW 19:32:48 56° WNW 19:38:20 10° NNE
Meteor 1-12 Rocket 4.4 19:28:54 10° SSW 19:34:54 83° WNW 19:40:59 10° N
Meteor 2-21 Rocket 4.5 19:29:05 10° SSW 19:35:08 81° W 19:41:14 10° N
Cosmos 1627 Rocket 4.4 19:32:03 10° S 19:38:04 64° E 19:44:07 10° NNE
JB-3 4.2 19:34:15 10° NNE 19:38:20 67° ESE 19:38:37 64° SE
USA 186 2.6 19:40:04 39° SSW 19:40:56 52° W 19:44:13 10° NNW
deb Chang Zheng 4 3.4 19:41:18 59° ENE 19:41:18 59° ENE 19:45:20 10° N
Cosmos 1428 Rocket 4.3 19:39:18 10° S 19:45:28 79° E 19:51:44 10° NNE
Cosmos 2195 Rocket 4.4 19:39:25 10° S 19:45:37 83° E 19:51:57 10° N
Cosmos 2278 3.9 19:42:24 10° SW 19:48:05 73° WNW 19:53:47 10° NNE
Meteor 1-24 Rocket 3.5 19:43:37 10° NNW 19:48:57 86° W 19:51:25 33° S
Cosmos 1437 Rocket 2.9 19:45:49 10° SSW 19:49:33 66° WNW 19:53:18 10° N
SL-16 R/B 2.1 19:45:43 10° SSW 19:51:18 64° ESE 19:56:56 10° NNE
USA 215 4.0 19:47:18 18° NE 19:51:59 46° N 19:58:10 10° W
SL-4 R/B 2.3 19:48:34 10° WNW 19:53:04 65° SSW 19:53:27 62° S
Cosmos 2208 Rocket 4.1 19:50:17 10° NNW 19:55:41 81° WSW 19:57:21 46° S
Cosmos 1844 Rocket 2.6 19:52:54 10° NNW 19:58:35 64° ENE 19:59:17 59° E
Okean O Rocket 4.2 19:55:49 10° SW 19:58:55 19° W 20:02:02 10° NW
Meteor 1-22 Rocket 4.1 19:55:30 10° SSW 20:00:52 81° WNW 20:06:30 10° N
USA 81 4.1 19:56:27 10° N 20:01:45 79° W 20:03:45 39° S
Landsat 5 4.4 19:57:30 10° N 20:01:54 53° WNW 20:06:15 10° SSW
Cosmos 2278 Rocket 4.0 19:58:58 10° N 20:02:34 17° NE 20:03:03 17° NE
Cosmos 2026 Rocket 3.8 19:57:03 10° S 20:03:07 87° WNW 20:09:13 10° N
Cosmos 1782 Rocket 3.8 20:06:54 48° SW 20:07:55 65° WNW 20:12:17 10° N
Cosmos 1553 Rocket 3.9 20:02:07 10° N 20:08:28 73° ENE 20:09:43 58° SE
MOS 1 4.1 20:08:42 66° SE 20:09:26 78° ENE 20:15:07 10° NNW
OBJECT-B 3.6 20:09:48 13° W 20:09:48 13° W 20:10:52 10° WNW
H-2A R/B 3.2 20:15:56 48° NW 20:15:56 48° NW 20:18:52 10° NNW
Cosmos 2263 Rocket 4.1 20:10:56 10° NW 20:15:28 25° WSW 20:20:00 10° SSW
USA 281 3.8 20:16:22 38° ENE 20:16:49 39° NE 20:22:48 10° NNW
Cosmos 1844 3.5 20:14:36 10° NNW 20:20:06 78° NE 20:20:06 78° NE
MetOp-A 4.5 20:21:56 41° NW 20:21:56 41° NW 20:24:45 10° NNW
Cosmos 1025 Rocket 4.0 20:24:15 10° NNW 20:28:10 43° W 20:28:10 43° W
MetOp-B 4.4 20:31:47 61° NNE 20:31:47 61° NNE 20:36:16 10° NNW
SPOT 1/Viking Rocket 3.7 20:32:06 71° W 20:32:06 71° W 20:37:04 10° NNW
SPOT 3 Rocket 4.4 20:37:48 40° NNE 20:37:48 40° NNE 20:41:14 10° N
Cosmos 1975 Rocket 4.5 20:33:49 10° NNW 20:37:50 34° W 20:37:59 34° W
Cosmos 2360 Rocket 4.5 20:46:44 12° NNE 20:46:44 12° NNE 20:47:11 10° NNE
Resurs 01 Rocket 2.8 20:42:59 40° NW 20:42:59 40° NW 20:46:13 10° NNW
Ariane Rocket 4.1 21:05:26 42° NW 21:05:26 42° NW 21:08:59 10° NNW
Terra 3.9 21:07:10 22° N 21:07:10 22° N 21:08:52 10° N
ATLAS 2AS CENTAUR R/B 4.0 21:01:33 10° NW 21:07:54 30° NNE 21:08:59 29° NE
Cosmos 2322 Rocket 3.2 21:09:30 41° N 21:09:30 41° N 21:13:31 10° NNE
S3M 4.5 21:11:14 10° NNW 21:16:36 55° WNW 21:16:36 55° WNW
NOSS 3-4 (A) 4.0 21:12:41 10° NW 21:18:30 62° N 21:18:30 62° N
NOSS 3-4 (C) 4.1 21:12:48 10° NW 21:18:36 61° N 21:18:36 61° N
USA 215 3.9 21:34:39 48° N 21:34:39 48° N 21:40:34 10° WNW
SL-16 R/B 4.0 21:31:01 10° WSW 21:35:52 28° NW 21:40:44 10° NNE
Cosmos 2278 Rocket 3.9 21:42:12 10° NNW 21:44:53 28° NNW 21:44:53 28° NNW
Cosmos 1943 Rocket 4.3 21:52:56 10° NNW 21:54:57 20° N 21:54:57 20° N
USA 281 4.2 22:03:15 40° WNW 22:03:15 40° WNW 22:07:34 10° NNW
Cosmos 2360 Rocket 4.5 22:28:28 19° N 22:28:28 19° N 22:30:45 10° NNE
ATLAS 2AS CENTAUR R/B 4.2 22:52:53 10° NW 22:56:24 31° NNW 22:56:24 31° NNW
